AFL771 UWGG-LTAI

Flight info

Callsign AFL771
Flight time 3h 28m
Altitude 34000
Route LARNO2U LARNO P985 OSPOM T787 OKNAN T535 EKTUT L4 TADID/K0848F360 L4 KIFUZ N604 NITOK DCT BOMKI/K0846F350 DCT RAKUR/N0456F350 UM856 BAG UW77 HALIL UP29 HISAR
Aircraft B738/M-SDE2E3FGHIRWXY/LB1

Departure

Time 2026-05-07 08:28
Airport Nizhny Novgorod / Strigino International Airport (UWGG)

Arrival

Time 2026-05-07 11:56
Airport Antalya International Airport (LTAI)
Time Latitude Longitude Altitude Speed Heading
2026-05-07 07:41 56.22289 43.78862 265 ft 0 kts 146°
2026-05-07 08:18 56.22287 43.78864 292 ft 1 kts 146°
2026-05-07 08:19 56.22278 43.78875 265 ft 2 kts 147°
2026-05-07 08:19 56.22261 43.78895 265 ft 3 kts 148°
2026-05-07 08:19 56.22233 43.78908 265 ft 5 kts 178°
2026-05-07 08:19 56.22187 43.78896 265 ft 8 kts 192°
2026-05-07 08:20 56.22120 43.78871 265 ft 11 kts 191°
2026-05-07 08:20 56.22070 43.78808 265 ft 9 kts 265°
2026-05-07 08:20 56.22104 43.78728 265 ft 8 kts 331°
2026-05-07 08:20 56.22160 43.78716 265 ft 8 kts
2026-05-07 08:21 56.22214 43.78733 265 ft 8 kts 11°
2026-05-07 08:21 56.22267 43.78754 265 ft 8 kts 12°
2026-05-07 08:21 56.22318 43.78773 265 ft 7 kts 11°
2026-05-07 08:21 56.22367 43.78790 265 ft 7 kts 10°
2026-05-07 08:22 56.22416 43.78810 265 ft 7 kts 16°
2026-05-07 08:22 56.22469 43.78852 265 ft 9 kts 17°
2026-05-07 08:22 56.22540 43.78877 265 ft 11 kts 11°
2026-05-07 08:22 56.22627 43.78910 265 ft 14 kts 12°
2026-05-07 08:23 56.22735 43.78950 265 ft 17 kts 11°
2026-05-07 08:23 56.22864 43.78996 265 ft 20 kts 12°
2026-05-07 08:23 56.23009 43.79051 265 ft 22 kts 12°
2026-05-07 08:23 56.23160 43.79106 265 ft 23 kts 11°
2026-05-07 08:24 56.23315 43.79163 265 ft 23 kts 11°
2026-05-07 08:24 56.23467 43.79218 265 ft 22 kts 12°
2026-05-07 08:24 56.23618 43.79242 265 ft 21 kts
2026-05-07 08:24 56.23765 43.79253 265 ft 21 kts
2026-05-07 08:25 56.23907 43.79264 265 ft 17 kts
2026-05-07 08:25 56.23969 43.79267 265 ft 8 kts
2026-05-07 08:25 56.24023 43.79262 265 ft 8 kts 350°
2026-05-07 08:25 56.24068 43.79218 265 ft 7 kts 317°
2026-05-07 08:26 56.24116 43.79063 266 ft 7 kts 277°
2026-05-07 08:26 56.24094 43.78991 267 ft 7 kts 208°
2026-05-07 08:26 56.24079 43.78982 267 ft 0 kts 193°
2026-05-07 08:27 56.24045 43.78969 266 ft 26 kts 193°
2026-05-07 08:27 56.23625 43.78814 263 ft 95 kts 191°
2026-05-07 08:27 56.22772 43.78501 266 ft 153 kts 191°
2026-05-07 08:27 56.21633 43.78113 626 ft 172 kts 189°
2026-05-07 08:28 56.20424 43.77684 1221 ft 183 kts 188°
2026-05-07 08:28 56.19157 43.77161 1851 ft 199 kts 196°
2026-05-07 08:28 56.17827 43.75989 2104 ft 223 kts 204°
2026-05-07 08:28 56.16384 43.74632 2311 ft 243 kts 205°
2026-05-07 08:29 56.14845 43.73270 2704 ft 251 kts 203°
2026-05-07 08:29 56.13465 43.71340 3318 ft 259 kts 228°
2026-05-07 08:29 56.12153 43.69192 4206 ft 256 kts 214°
2026-05-07 08:29 56.10591 43.67618 4970 ft 259 kts 201°
2026-05-07 08:30 56.08841 43.66866 5857 ft 260 kts 195°
2026-05-07 08:30 56.07084 43.65968 6529 ft 263 kts 204°
2026-05-07 08:30 56.05376 43.64722 7249 ft 267 kts 207°
2026-05-07 08:30 56.03683 43.63336 8033 ft 269 kts 208°
2026-05-07 08:31 56.02022 43.61786 8754 ft 269 kts 220°
2026-05-07 08:31 56.00715 43.59415 9467 ft 269 kts 231°
2026-05-07 08:31 55.99490 43.56867 10180 ft 272 kts 232°
2026-05-07 08:31 55.98253 43.54284 10851 ft 275 kts 232°
2026-05-07 08:32 55.97001 43.51679 11523 ft 278 kts 232°
2026-05-07 08:32 55.95748 43.49087 12194 ft 280 kts 232°
2026-05-07 08:32 55.94465 43.46444 12873 ft 284 kts 232°
2026-05-07 08:32 55.93161 43.43768 13529 ft 287 kts 232°
2026-05-07 08:33 55.91816 43.41011 13787 ft 305 kts 232°
2026-05-07 08:33 55.90379 43.38070 13941 ft 324 kts 231°
2026-05-07 08:33 55.88854 43.34959 14082 ft 342 kts 231°
2026-05-07 08:33 55.87257 43.31710 14449 ft 352 kts 231°
2026-05-07 08:34 55.85633 43.28415 15019 ft 355 kts 231°
2026-05-07 08:34 55.84000 43.25106 15669 ft 357 kts 231°
2026-05-07 08:34 55.82356 43.21777 16280 ft 359 kts 231°
2026-05-07 08:34 55.80697 43.18418 16862 ft 362 kts 231°
2026-05-07 08:35 55.79315 43.14682 17410 ft 363 kts 249°
2026-05-07 08:35 55.78553 43.10410 17999 ft 364 kts 255°
2026-05-07 08:35 55.77903 43.06049 18522 ft 367 kts 256°
2026-05-07 08:35 55.77263 43.01634 18993 ft 370 kts 256°
2026-05-07 08:36 55.76619 42.97204 19473 ft 372 kts 256°
2026-05-07 08:36 55.75960 42.92733 19953 ft 375 kts 255°
2026-05-07 08:36 55.75297 42.88287 20431 ft 378 kts 255°
2026-05-07 08:36 55.74615 42.83770 20902 ft 380 kts 255°
2026-05-07 08:37 55.73924 42.79222 21355 ft 383 kts 255°
2026-05-07 08:37 55.73223 42.74643 21774 ft 387 kts 255°
2026-05-07 08:37 55.72504 42.69960 22199 ft 390 kts 255°
2026-05-07 08:37 55.71795 42.65363 22642 ft 392 kts 255°
2026-05-07 08:38 55.71070 42.60671 23091 ft 395 kts 255°
2026-05-07 08:38 55.70340 42.55965 23502 ft 397 kts 255°
2026-05-07 08:38 55.69603 42.51229 23851 ft 400 kts 254°
2026-05-07 08:38 55.68860 42.46463 24222 ft 402 kts 254°
2026-05-07 08:39 55.68112 42.41680 24593 ft 403 kts 254°
2026-05-07 08:39 55.67360 42.36884 24944 ft 405 kts 254°
2026-05-07 08:39 55.66603 42.32068 25281 ft 407 kts 254°
2026-05-07 08:39 55.65839 42.27223 25616 ft 409 kts 254°
2026-05-07 08:40 55.65069 42.22356 25949 ft 411 kts 254°
2026-05-07 08:40 55.64295 42.17477 26297 ft 412 kts 254°
2026-05-07 08:40 55.63518 42.12595 26666 ft 412 kts 254°
2026-05-07 08:40 55.62741 42.07724 27134 ft 410 kts 253°
2026-05-07 08:41 55.61968 42.02884 27641 ft 408 kts 253°
2026-05-07 08:41 55.61194 41.98061 28086 ft 407 kts 253°
2026-05-07 08:41 55.60422 41.93251 28485 ft 407 kts 253°
2026-05-07 08:41 55.59647 41.88450 28893 ft 406 kts 253°
2026-05-07 08:42 55.58930 41.83705 29330 ft 405 kts 258°
2026-05-07 08:42 55.58571 41.78777 29734 ft 405 kts 266°
2026-05-07 08:42 55.58519 41.73793 30114 ft 405 kts 268°
2026-05-07 08:42 55.58484 41.68821 30431 ft 404 kts 268°
2026-05-07 08:43 55.58444 41.63854 30780 ft 403 kts 267°
2026-05-07 08:43 55.58391 41.58897 31119 ft 402 kts 267°
2026-05-07 08:43 55.58329 41.53953 31445 ft 401 kts 267°
2026-05-07 08:43 55.58260 41.49035 31764 ft 400 kts 267°
2026-05-07 08:44 55.58189 41.44116 32026 ft 401 kts 267°
2026-05-07 08:44 55.58115 41.39193 32328 ft 399 kts 267°
2026-05-07 08:44 55.58040 41.34321 32803 ft 394 kts 267°
2026-05-07 08:44 55.57798 41.29576 33078 ft 392 kts 255°
2026-05-07 08:45 55.56872 41.25054 33261 ft 393 kts 243°
2026-05-07 08:45 55.55415 41.20974 33494 ft 393 kts 230°
2026-05-07 08:45 55.53548 41.17452 33781 ft 392 kts 227°
2026-05-07 08:45 55.51621 41.14025 33950 ft 394 kts 226°
2026-05-07 08:46 55.47717 41.07146 33921 ft 398 kts 226°
2026-05-07 08:46 55.43840 41.00267 33914 ft 392 kts 226°
2026-05-07 08:47 55.40017 40.93445 33938 ft 392 kts 226°
2026-05-07 08:47 55.36202 40.86638 33937 ft 393 kts 226°
2026-05-07 08:48 55.32352 40.79783 33938 ft 395 kts 226°
2026-05-07 08:48 55.28482 40.72914 33922 ft 396 kts 226°
2026-05-07 08:49 55.24601 40.66046 33929 ft 397 kts 226°
2026-05-07 08:49 55.20707 40.59174 33926 ft 397 kts 226°
2026-05-07 08:50 55.16823 40.52342 33922 ft 398 kts 226°
2026-05-07 08:50 55.12913 40.45483 33917 ft 398 kts 226°
2026-05-07 08:51 55.08993 40.38628 33914 ft 399 kts 226°
2026-05-07 08:51 55.05734 40.32943 33921 ft 398 kts 226°
2026-05-07 08:52 55.01802 40.26102 33901 ft 399 kts 225°
2026-05-07 08:52 54.97877 40.19294 33905 ft 398 kts 225°
2026-05-07 08:53 54.93966 40.12530 33923 ft 398 kts 225°
2026-05-07 08:53 54.90029 40.05740 33922 ft 398 kts 225°
2026-05-07 08:54 54.86099 39.98978 33917 ft 398 kts 225°
2026-05-07 08:54 54.82162 39.92227 33917 ft 398 kts 225°
2026-05-07 08:55 54.77799 39.86350 33922 ft 399 kts 210°
2026-05-07 08:55 54.72695 39.82503 33922 ft 400 kts 204°
2026-05-07 08:56 54.67562 39.78890 33905 ft 401 kts 204°
2026-05-07 08:56 54.62400 39.75221 33921 ft 401 kts 204°
2026-05-07 08:57 54.57229 39.71519 33923 ft 403 kts 204°
2026-05-07 08:57 54.52033 39.67798 33923 ft 405 kts 204°
2026-05-07 08:58 54.46810 39.64066 33934 ft 407 kts 204°
2026-05-07 08:58 54.41560 39.60325 33931 ft 409 kts 204°
2026-05-07 08:59 54.36320 39.56604 33924 ft 410 kts 204°
2026-05-07 08:59 54.31043 39.52866 33918 ft 411 kts 204°
2026-05-07 09:00 54.25758 39.49131 33927 ft 411 kts 204°
2026-05-07 09:00 54.20480 39.45411 33933 ft 410 kts 204°
2026-05-07 09:01 54.15196 39.41700 33939 ft 410 kts 204°
2026-05-07 09:01 54.09954 39.37886 33935 ft 409 kts 205°
2026-05-07 09:02 54.04733 39.34028 33921 ft 409 kts 205°
2026-05-07 09:02 53.99510 39.30195 33935 ft 408 kts 204°
2026-05-07 09:03 53.94330 39.26413 33937 ft 408 kts 204°
2026-05-07 09:03 53.89241 39.22243 33905 ft 405 kts 221°
2026-05-07 09:04 53.87341 39.18768 33956 ft 401 kts 237°
2026-05-07 09:04 53.86089 39.14556 33943 ft 400 kts 252°
2026-05-07 09:04 53.84632 39.05453 33945 ft 401 kts 255°
2026-05-07 09:05 53.83156 38.96320 33935 ft 403 kts 254°
2026-05-07 09:05 53.81507 38.87246 33940 ft 404 kts 252°
2026-05-07 09:06 53.79807 38.78147 33948 ft 406 kts 252°
2026-05-07 09:06 53.78116 38.69025 33948 ft 407 kts 253°
2026-05-07 09:07 53.76431 38.59944 33946 ft 408 kts 252°
2026-05-07 09:07 53.75289 38.55578 33921 ft 408 kts 234°
2026-05-07 09:07 53.73350 38.52102 33959 ft 408 kts 217°
2026-05-07 09:08 53.70893 38.49683 33956 ft 410 kts 203°
2026-05-07 09:08 53.68129 38.48488 33947 ft 413 kts 188°
2026-05-07 09:08 53.62393 38.47621 33953 ft 414 kts 186°
2026-05-07 09:09 53.56634 38.46894 33949 ft 415 kts 186°
2026-05-07 09:09 53.50879 38.46111 33952 ft 415 kts 186°
2026-05-07 09:10 53.45145 38.45287 33943 ft 416 kts 187°
2026-05-07 09:10 53.39376 38.44444 33956 ft 416 kts 186°
2026-05-07 09:11 53.33597 38.43598 33957 ft 417 kts 187°
2026-05-07 09:11 53.27812 38.42754 33960 ft 417 kts 187°
2026-05-07 09:12 53.22020 38.41912 33959 ft 417 kts 187°
2026-05-07 09:12 53.16234 38.41074 33955 ft 417 kts 186°
2026-05-07 09:13 53.10447 38.40237 33957 ft 417 kts 186°
2026-05-07 09:13 53.04701 38.39409 33960 ft 417 kts 187°
2026-05-07 09:14 52.98923 38.38578 33962 ft 417 kts 187°
2026-05-07 09:14 52.93134 38.37748 33964 ft 417 kts 187°
2026-05-07 09:15 52.87354 38.36922 33959 ft 417 kts 186°
2026-05-07 09:15 52.81577 38.36097 33972 ft 416 kts 186°
2026-05-07 09:16 52.75807 38.35276 33968 ft 416 kts 186°
2026-05-07 09:16 52.70029 38.34458 33974 ft 416 kts 186°
2026-05-07 09:17 52.64297 38.33648 33973 ft 416 kts 187°
2026-05-07 09:17 52.58526 38.32834 33973 ft 416 kts 186°
2026-05-07 09:18 52.52755 38.32021 33977 ft 416 kts 186°
2026-05-07 09:18 52.46984 38.31211 33974 ft 416 kts 186°
2026-05-07 09:19 52.41197 38.30403 33980 ft 417 kts 186°
2026-05-07 09:19 52.35416 38.29593 33980 ft 417 kts 186°
2026-05-07 09:20 52.29671 38.28795 33982 ft 417 kts 186°
2026-05-07 09:20 52.23885 38.27987 33979 ft 417 kts 186°
2026-05-07 09:21 52.18100 38.27182 33987 ft 417 kts 188°
2026-05-07 09:21 52.12544 38.24730 33972 ft 414 kts 207°
2026-05-07 09:22 52.07421 38.20496 33984 ft 413 kts 208°
2026-05-07 09:22 52.02296 38.16230 33983 ft 414 kts 208°
2026-05-07 09:23 51.97146 38.12023 33993 ft 414 kts 207°
2026-05-07 09:23 51.92023 38.07873 34000 ft 414 kts 208°
2026-05-07 09:24 51.86858 38.03703 33997 ft 415 kts 207°
2026-05-07 09:24 51.81689 37.99539 34001 ft 415 kts 207°
2026-05-07 09:25 51.76519 37.95361 33995 ft 416 kts 207°
2026-05-07 09:25 51.71347 37.91154 34000 ft 416 kts 207°
2026-05-07 09:26 51.66166 37.86954 34004 ft 417 kts 207°
2026-05-07 09:26 51.60983 37.82765 33999 ft 417 kts 207°
2026-05-07 09:27 51.55783 37.78573 33997 ft 418 kts 207°
2026-05-07 09:28 51.47994 37.72373 34000 ft 418 kts 206°
2026-05-07 09:28 51.42767 37.68245 34006 ft 419 kts 207°
2026-05-07 09:29 51.37534 37.64117 34015 ft 419 kts 206°
2026-05-07 09:29 51.32289 37.59986 34006 ft 420 kts 206°
2026-05-07 09:30 51.27038 37.55862 34011 ft 421 kts 206°
2026-05-07 09:30 51.21816 37.51769 34014 ft 421 kts 206°
2026-05-07 09:31 51.16554 37.47657 34012 ft 421 kts 206°
2026-05-07 09:31 51.11297 37.43519 34012 ft 422 kts 206°
2026-05-07 09:32 51.06037 37.39384 34020 ft 422 kts 206°
2026-05-07 09:32 51.00743 37.35338 34018 ft 422 kts 206°
2026-05-07 09:33 50.95453 37.31311 34016 ft 422 kts 206°
2026-05-07 09:33 50.90168 37.27278 34029 ft 422 kts 206°
2026-05-07 09:34 50.84888 37.23216 34019 ft 422 kts 206°
2026-05-07 09:34 50.79644 37.19181 34027 ft 421 kts 206°
2026-05-07 09:35 50.74364 37.15132 34032 ft 421 kts 206°
2026-05-07 09:35 50.69082 37.11093 34031 ft 422 kts 206°
2026-05-07 09:36 50.63798 37.07064 34035 ft 422 kts 205°
2026-05-07 09:36 50.58508 37.03041 34034 ft 422 kts 205°
2026-05-07 09:37 50.53209 36.99021 34040 ft 423 kts 205°
2026-05-07 09:37 50.47899 36.95002 34035 ft 424 kts 205°
2026-05-07 09:38 50.42579 36.90985 34028 ft 424 kts 205°
2026-05-07 09:38 50.37254 36.86973 34037 ft 425 kts 205°
2026-05-07 09:39 50.31987 36.82851 34033 ft 425 kts 212°
2026-05-07 09:39 50.27416 36.77022 34046 ft 425 kts 222°
2026-05-07 09:40 50.23055 36.70801 34044 ft 424 kts 222°
2026-05-07 09:40 50.19409 36.65655 34036 ft 424 kts 221°
2026-05-07 09:41 50.15009 36.59515 34048 ft 424 kts 221°
2026-05-07 09:41 50.10605 36.53407 34042 ft 424 kts 221°
2026-05-07 09:42 50.06196 36.47308 34039 ft 424 kts 221°
2026-05-07 09:42 50.01794 36.41234 34048 ft 423 kts 221°
2026-05-07 09:43 49.97391 36.35169 34041 ft 423 kts 221°
2026-05-07 09:43 49.93018 36.29159 34059 ft 422 kts 222°
2026-05-07 09:44 49.88824 36.22776 34057 ft 422 kts 225°
2026-05-07 09:44 49.84739 36.16228 34063 ft 422 kts 226°
2026-05-07 09:45 49.80640 36.09705 34056 ft 423 kts 225°
2026-05-07 09:45 49.76517 36.03215 34062 ft 422 kts 225°
2026-05-07 09:46 49.72384 35.96746 34062 ft 423 kts 225°
2026-05-07 09:46 49.68244 35.90288 34073 ft 423 kts 225°
2026-05-07 09:47 49.64126 35.83878 34062 ft 423 kts 225°
2026-05-07 09:47 49.59983 35.77446 34070 ft 423 kts 225°
2026-05-07 09:48 49.55839 35.71027 34064 ft 423 kts 225°
2026-05-07 09:48 49.51688 35.64614 34073 ft 422 kts 225°
2026-05-07 09:49 49.47536 35.58216 34068 ft 422 kts 225°
2026-05-07 09:49 49.43387 35.51836 34074 ft 422 kts 225°
2026-05-07 09:50 49.39231 35.45463 34068 ft 422 kts 225°
2026-05-07 09:50 49.35059 35.39127 34072 ft 421 kts 225°
2026-05-07 09:51 49.30882 35.32835 34078 ft 421 kts 225°
2026-05-07 09:51 49.26726 35.26584 34075 ft 421 kts 225°
2026-05-07 09:52 49.22548 35.20308 34080 ft 421 kts 225°
2026-05-07 09:52 49.18358 35.14028 34077 ft 422 kts 225°
2026-05-07 09:53 49.14161 35.07754 34087 ft 422 kts 225°
2026-05-07 09:53 49.09963 35.01492 34083 ft 422 kts 225°
2026-05-07 09:54 49.05755 34.95230 34084 ft 422 kts 224°
2026-05-07 09:54 49.01318 34.89453 34083 ft 423 kts 212°
2026-05-07 09:55 48.96035 34.85510 34082 ft 423 kts 204°
2026-05-07 09:55 48.90657 34.81834 34087 ft 424 kts 205°
2026-05-07 09:56 48.85270 34.78118 34086 ft 425 kts 205°
2026-05-07 09:56 48.79889 34.74370 34093 ft 426 kts 205°
2026-05-07 09:57 48.74500 34.70609 34083 ft 427 kts 205°
2026-05-07 09:57 48.69099 34.66845 34093 ft 427 kts 205°
2026-05-07 09:58 48.63722 34.63109 34090 ft 427 kts 205°
2026-05-07 09:58 48.58314 34.59358 34087 ft 427 kts 205°
2026-05-07 09:59 48.52911 34.55621 34081 ft 427 kts 205°
2026-05-07 09:59 48.47520 34.51902 34088 ft 426 kts 205°
2026-05-07 10:00 48.42131 34.48191 34090 ft 425 kts 205°
2026-05-07 10:00 48.36751 34.44497 34105 ft 425 kts 205°
2026-05-07 10:01 48.31368 34.40809 34099 ft 425 kts 205°
2026-05-07 10:01 48.25976 34.37122 34095 ft 426 kts 205°
2026-05-07 10:02 48.20606 34.33460 34096 ft 426 kts 205°
2026-05-07 10:02 48.15197 34.29779 34096 ft 427 kts 205°
2026-05-07 10:03 48.09780 34.26102 34103 ft 427 kts 204°
2026-05-07 10:03 48.04355 34.22428 34103 ft 428 kts 205°
2026-05-07 10:04 47.98961 34.18784 34103 ft 428 kts 204°
2026-05-07 10:04 47.93536 34.15126 34104 ft 428 kts 204°
2026-05-07 10:05 47.88097 34.11473 34108 ft 427 kts 204°
2026-05-07 10:05 47.82681 34.07834 34106 ft 427 kts 204°
2026-05-07 10:06 47.77301 34.04231 34107 ft 426 kts 204°
2026-05-07 10:06 47.71896 34.00620 34110 ft 425 kts 204°
2026-05-07 10:07 47.66498 33.97021 34121 ft 425 kts 204°
2026-05-07 10:07 47.61101 33.93431 34115 ft 425 kts 204°
2026-05-07 10:08 47.55633 33.90080 34129 ft 425 kts 200°
2026-05-07 10:08 47.50069 33.87073 34123 ft 426 kts 200°
2026-05-07 10:09 47.44495 33.84080 34121 ft 427 kts 200°
2026-05-07 10:09 47.38934 33.81057 34119 ft 428 kts 200°
2026-05-07 10:10 47.33349 33.78006 34121 ft 429 kts 200°
2026-05-07 10:10 47.27755 33.74953 34126 ft 429 kts 200°
2026-05-07 10:11 47.22132 33.71892 34141 ft 429 kts 200°
2026-05-07 10:11 47.16561 33.68866 34138 ft 429 kts 201°
2026-05-07 10:12 47.10962 33.65831 34142 ft 428 kts 200°
2026-05-07 10:12 47.05395 33.62822 34136 ft 425 kts 200°
2026-05-07 10:13 46.99848 33.59829 34143 ft 425 kts 200°
2026-05-07 10:13 46.94270 33.56826 34154 ft 430 kts 201°
2026-05-07 10:14 46.88623 33.53792 34143 ft 434 kts 200°
2026-05-07 10:14 46.82960 33.50757 34136 ft 431 kts 200°
2026-05-07 10:15 46.77625 33.47057 34152 ft 426 kts 212°
2026-05-07 10:15 46.72577 33.42572 34153 ft 424 kts 212°
2026-05-07 10:16 46.67524 33.38078 34163 ft 428 kts 212°
2026-05-07 10:16 46.62389 33.33587 34168 ft 432 kts 212°
2026-05-07 10:17 46.57197 33.29087 34164 ft 435 kts 211°
2026-05-07 10:17 46.52013 33.24613 34172 ft 434 kts 211°
2026-05-07 10:18 46.46795 33.20116 34183 ft 444 kts 212°
2026-05-07 10:18 46.41425 33.15496 34187 ft 453 kts 211°
2026-05-07 10:19 46.35953 33.10801 34187 ft 461 kts 211°
2026-05-07 10:19 46.30404 33.06053 34186 ft 465 kts 211°
2026-05-07 10:20 46.24795 33.01263 34188 ft 471 kts 211°
2026-05-07 10:20 46.19133 32.96438 34186 ft 473 kts 211°
2026-05-07 10:21 46.13445 32.91607 34184 ft 475 kts 211°
2026-05-07 10:21 46.07477 32.87694 34194 ft 474 kts 201°
2026-05-07 10:22 46.01307 32.84320 34187 ft 474 kts 201°
2026-05-07 10:22 45.95160 32.80946 34192 ft 472 kts 201°
2026-05-07 10:23 45.89043 32.77524 34194 ft 471 kts 202°
2026-05-07 10:23 45.82948 32.74091 34198 ft 470 kts 202°
2026-05-07 10:24 45.76866 32.70667 34195 ft 469 kts 202°
2026-05-07 10:24 45.70784 32.67254 34187 ft 469 kts 202°
2026-05-07 10:25 45.64751 32.63879 34197 ft 468 kts 202°
2026-05-07 10:25 45.58671 32.60486 34199 ft 469 kts 202°
2026-05-07 10:26 45.52591 32.57100 34189 ft 469 kts 202°
2026-05-07 10:26 45.46500 32.53716 34201 ft 470 kts 202°
2026-05-07 10:27 45.40399 32.50335 34206 ft 471 kts 202°
2026-05-07 10:27 45.34270 32.46946 34189 ft 473 kts 202°
2026-05-07 10:28 45.28132 32.43559 34197 ft 473 kts 202°
2026-05-07 10:28 45.22028 32.40200 34200 ft 474 kts 202°
2026-05-07 10:29 45.15865 32.36815 34199 ft 475 kts 202°
2026-05-07 10:29 45.09699 32.33438 34199 ft 475 kts 203°
2026-05-07 10:30 45.00451 32.28386 34204 ft 474 kts 202°
2026-05-07 10:30 44.94295 32.25033 34190 ft 474 kts 202°
2026-05-07 10:31 44.89185 32.22255 34199 ft 474 kts 202°
2026-05-07 10:31 44.83033 32.18918 34199 ft 474 kts 202°
2026-05-07 10:32 44.75877 32.15046 34186 ft 474 kts 203°
2026-05-07 10:32 44.70719 32.12260 34199 ft 474 kts 203°
2026-05-07 10:33 44.64557 32.08940 34202 ft 474 kts 203°
2026-05-07 10:33 44.58425 32.05643 34197 ft 475 kts 203°
2026-05-07 10:34 44.52087 32.02940 34197 ft 479 kts 190°
2026-05-07 10:34 44.45402 32.02434 34202 ft 482 kts 182°
2026-05-07 10:35 44.38685 32.02221 34202 ft 482 kts 182°
2026-05-07 10:35 44.31964 32.01956 34197 ft 483 kts 184°
2026-05-07 10:36 44.25209 32.01641 34199 ft 486 kts 184°
2026-05-07 10:36 44.18429 32.01311 34200 ft 489 kts 184°
2026-05-07 10:37 44.11609 32.00980 34212 ft 491 kts 184°
2026-05-07 10:37 44.04809 32.00654 34196 ft 491 kts 184°
2026-05-07 10:38 43.97984 32.00328 34183 ft 490 kts 184°
2026-05-07 10:38 43.91179 32.00004 34172 ft 489 kts 184°
2026-05-07 10:39 43.84372 31.99680 34185 ft 489 kts 184°
2026-05-07 10:39 43.77557 31.99356 34187 ft 490 kts 184°
2026-05-07 10:40 43.70748 31.99035 34168 ft 489 kts 184°
2026-05-07 10:40 43.63948 31.98713 34185 ft 489 kts 184°
2026-05-07 10:41 43.57142 31.98392 34180 ft 489 kts 184°
2026-05-07 10:41 43.50370 31.98073 34168 ft 490 kts 184°
2026-05-07 10:42 43.43553 31.97753 34177 ft 490 kts 184°
2026-05-07 10:42 43.36727 31.97434 34196 ft 491 kts 184°
2026-05-07 10:43 43.29893 31.97115 34160 ft 491 kts 184°
2026-05-07 10:43 43.23062 31.96796 34172 ft 492 kts 184°
2026-05-07 10:44 43.16220 31.96478 34175 ft 492 kts 184°
2026-05-07 10:44 43.09409 31.96162 34159 ft 493 kts 184°
2026-05-07 10:45 43.02539 31.95844 34185 ft 494 kts 184°
2026-05-07 10:45 42.95652 31.95525 34173 ft 495 kts 184°
2026-05-07 10:46 42.88763 31.95208 34149 ft 495 kts 184°
2026-05-07 10:46 42.81874 31.94909 34164 ft 496 kts 182°
2026-05-07 10:47 42.75015 31.96189 34179 ft 500 kts 167°
2026-05-07 10:47 42.68267 31.98527 34182 ft 500 kts 166°
2026-05-07 10:48 42.61510 32.00851 34162 ft 501 kts 167°
2026-05-07 10:48 42.54771 32.03093 34167 ft 501 kts 167°
2026-05-07 10:49 42.47994 32.05311 34164 ft 501 kts 167°
2026-05-07 10:49 42.41203 32.07528 34158 ft 502 kts 167°
2026-05-07 10:50 42.34421 32.09740 34167 ft 502 kts 167°
2026-05-07 10:50 42.27630 32.11952 34163 ft 502 kts 168°
2026-05-07 10:51 42.20836 32.14161 34148 ft 502 kts 168°
2026-05-07 10:51 42.14040 32.16365 34168 ft 502 kts 168°
2026-05-07 10:52 42.07284 32.18552 34160 ft 503 kts 168°
2026-05-07 10:52 42.00485 32.20747 34161 ft 503 kts 168°
2026-05-07 10:53 41.93685 32.22939 34159 ft 503 kts 168°
2026-05-07 10:53 41.86872 32.25129 34159 ft 503 kts 168°
2026-05-07 10:54 41.80065 32.27314 34154 ft 503 kts 168°
2026-05-07 10:54 41.73261 32.29492 34138 ft 503 kts 168°
2026-05-07 10:55 41.66435 32.31665 34158 ft 503 kts 168°
2026-05-07 10:55 41.59654 32.33811 34151 ft 504 kts 168°
2026-05-07 10:56 41.52816 32.35970 34124 ft 505 kts 168°
2026-05-07 10:56 41.45975 32.38128 34153 ft 506 kts 168°
2026-05-07 10:57 41.39122 32.40286 34153 ft 506 kts 168°
2026-05-07 10:57 41.32258 32.42442 34144 ft 506 kts 168°
2026-05-07 10:58 41.25404 32.44585 34147 ft 506 kts 168°
2026-05-07 10:58 41.18585 32.46722 34160 ft 507 kts 168°
2026-05-07 10:59 41.11714 32.48871 34139 ft 507 kts 168°
2026-05-07 10:59 41.04858 32.51018 34156 ft 505 kts 168°
2026-05-07 11:00 40.98015 32.53140 34136 ft 504 kts 168°
2026-05-07 11:00 40.91181 32.55251 34164 ft 505 kts 168°
2026-05-07 11:01 40.84327 32.57370 34155 ft 507 kts 168°
2026-05-07 11:01 40.77445 32.59496 34164 ft 508 kts 168°
2026-05-07 11:02 40.70536 32.61626 34168 ft 510 kts 168°
2026-05-07 11:02 40.63662 32.63741 34158 ft 511 kts 169°
2026-05-07 11:03 40.56726 32.65867 34181 ft 512 kts 169°
2026-05-07 11:03 40.49784 32.67989 34175 ft 512 kts 168°
2026-05-07 11:04 40.42846 32.70116 34176 ft 512 kts 169°
2026-05-07 11:04 40.35908 32.72232 34190 ft 512 kts 169°
2026-05-07 11:05 40.28971 32.74342 34194 ft 512 kts 169°
2026-05-07 11:05 40.22037 32.76448 34178 ft 512 kts 169°
2026-05-07 11:06 40.15132 32.78541 34201 ft 513 kts 169°
2026-05-07 11:06 40.08122 32.79740 34195 ft 505 kts 188°
2026-05-07 11:07 40.04678 32.79019 34201 ft 498 kts 200°
2026-05-07 11:07 40.01459 32.77515 34192 ft 488 kts 212°
2026-05-07 11:07 39.95473 32.73374 34203 ft 487 kts 214°
2026-05-07 11:08 39.89473 32.69252 34193 ft 488 kts 213°
2026-05-07 11:08 39.83440 32.65194 34193 ft 488 kts 213°
2026-05-07 11:09 39.77385 32.61161 34189 ft 489 kts 213°
2026-05-07 11:09 39.71320 32.57127 34192 ft 489 kts 213°
2026-05-07 11:10 39.65260 32.53100 34192 ft 489 kts 213°
2026-05-07 11:10 39.59193 32.49076 34214 ft 489 kts 213°
2026-05-07 11:11 39.53158 32.45080 34211 ft 490 kts 213°
2026-05-07 11:11 39.47076 32.41061 34210 ft 490 kts 213°
2026-05-07 11:12 39.40982 32.37041 34176 ft 491 kts 213°
2026-05-07 11:12 39.34932 32.33072 34194 ft 491 kts 213°
2026-05-07 11:13 39.28827 32.29094 34198 ft 491 kts 213°
2026-05-07 11:13 39.22711 32.25119 34199 ft 491 kts 213°
2026-05-07 11:14 39.16643 32.21178 34200 ft 491 kts 213°
2026-05-07 11:14 39.10531 32.17213 34210 ft 491 kts 213°
2026-05-07 11:15 39.04427 32.13262 34203 ft 491 kts 213°
2026-05-07 11:15 38.98309 32.09311 34204 ft 492 kts 213°
2026-05-07 11:16 38.92201 32.05373 34171 ft 487 kts 213°
2026-05-07 11:16 38.89219 32.03461 34154 ft 471 kts 213°
2026-05-07 11:16 38.86325 32.01610 34169 ft 459 kts 213°
2026-05-07 11:17 38.80661 31.97969 34188 ft 457 kts 213°
2026-05-07 11:17 38.74975 31.94312 34176 ft 457 kts 213°
2026-05-07 11:18 38.69299 31.90674 34181 ft 456 kts 213°
2026-05-07 11:18 38.63618 31.87043 34184 ft 456 kts 213°
2026-05-07 11:19 38.57932 31.83417 34188 ft 456 kts 213°
2026-05-07 11:19 38.55068 31.81590 33780 ft 464 kts 213°
2026-05-07 11:19 38.52178 31.79748 33301 ft 464 kts 212°
2026-05-07 11:20 38.49287 31.77913 32767 ft 461 kts 212°
2026-05-07 11:20 38.46458 31.76120 32265 ft 458 kts 212°
2026-05-07 11:20 38.43571 31.74290 31742 ft 456 kts 212°
2026-05-07 11:20 38.40734 31.72492 31254 ft 455 kts 213°
2026-05-07 11:21 38.38862 31.71306 30931 ft 453 kts 213°
2026-05-07 11:21 38.35121 31.68937 30290 ft 451 kts 213°
2026-05-07 11:21 38.32318 31.67163 29735 ft 449 kts 212°
2026-05-07 11:21 38.29520 31.65395 29191 ft 447 kts 212°
2026-05-07 11:22 38.27674 31.64229 28832 ft 446 kts 212°
2026-05-07 11:22 38.24901 31.62478 28302 ft 443 kts 212°
2026-05-07 11:22 38.22139 31.60736 27778 ft 441 kts 212°
2026-05-07 11:22 38.19396 31.59007 27261 ft 439 kts 212°
2026-05-07 11:23 38.16665 31.57287 26753 ft 436 kts 212°
2026-05-07 11:23 38.13951 31.55582 26267 ft 435 kts 211°
2026-05-07 11:23 38.11126 31.54102 25737 ft 445 kts 197°
2026-05-07 11:23 38.08016 31.53715 25419 ft 451 kts 185°
2026-05-07 11:24 38.04865 31.53597 25326 ft 453 kts 185°
2026-05-07 11:24 38.01731 31.53452 25228 ft 449 kts 186°
2026-05-07 11:24 37.98614 31.53282 25212 ft 447 kts 186°
2026-05-07 11:24 37.95542 31.53096 25214 ft 449 kts 186°
2026-05-07 11:25 37.92416 31.52898 25207 ft 449 kts 186°
2026-05-07 11:25 37.89290 31.52698 25188 ft 449 kts 186°
2026-05-07 11:25 37.86159 31.52499 25200 ft 448 kts 186°
2026-05-07 11:25 37.83048 31.52303 25199 ft 448 kts 186°
2026-05-07 11:26 37.79934 31.52107 25198 ft 447 kts 186°
2026-05-07 11:26 37.76824 31.51904 25194 ft 446 kts 187°
2026-05-07 11:26 37.73738 31.51562 25197 ft 445 kts 189°
2026-05-07 11:26 37.70661 31.51118 25203 ft 444 kts 190°
2026-05-07 11:27 37.67630 31.50650 25193 ft 444 kts 191°
2026-05-07 11:27 37.64563 31.50182 25196 ft 444 kts 190°
2026-05-07 11:27 37.61494 31.49729 25189 ft 444 kts 190°
2026-05-07 11:27 37.58415 31.49288 25190 ft 445 kts 190°
2026-05-07 11:28 37.55341 31.48856 25189 ft 445 kts 190°
2026-05-07 11:28 37.52259 31.48426 25180 ft 445 kts 190°
2026-05-07 11:28 37.49175 31.47997 25171 ft 445 kts 190°
2026-05-07 11:28 37.46096 31.47568 25173 ft 446 kts 190°
2026-05-07 11:29 37.43005 31.47137 25175 ft 446 kts 190°
2026-05-07 11:29 37.39916 31.46707 25167 ft 446 kts 190°
2026-05-07 11:29 37.36831 31.46278 25161 ft 446 kts 190°
2026-05-07 11:29 37.33745 31.45849 25161 ft 446 kts 190°
2026-05-07 11:30 37.30660 31.45421 25149 ft 446 kts 190°
2026-05-07 11:30 37.27578 31.44993 25145 ft 446 kts 190°
2026-05-07 11:30 37.24496 31.44566 25151 ft 445 kts 190°
2026-05-07 11:30 37.21465 31.44146 25147 ft 444 kts 190°
2026-05-07 11:31 37.18502 31.43255 25129 ft 433 kts 210°
2026-05-07 11:31 37.15976 31.41235 25150 ft 420 kts 227°
2026-05-07 11:31 37.14123 31.38547 25160 ft 409 kts 243°
2026-05-07 11:31 37.12884 31.35337 25136 ft 401 kts 256°
2026-05-07 11:32 37.12522 31.28667 25140 ft 382 kts 293°
2026-05-07 11:32 37.13877 31.25861 25134 ft 376 kts 316°
2026-05-07 11:32 37.16022 31.24025 25151 ft 376 kts 334°
2026-05-07 11:33 37.18468 31.22837 25154 ft 379 kts 342°
2026-05-07 11:33 37.21068 31.22232 25130 ft 383 kts 355°
2026-05-07 11:33 37.23741 31.22420 25139 ft 387 kts
2026-05-07 11:33 37.26379 31.23241 25161 ft 392 kts 13°
2026-05-07 11:34 37.29013 31.24099 25150 ft 390 kts
2026-05-07 11:34 37.31691 31.24619 25170 ft 388 kts
2026-05-07 11:34 37.34371 31.24994 25159 ft 387 kts
2026-05-07 11:34 37.37055 31.25332 25170 ft 387 kts
2026-05-07 11:35 37.39696 31.25680 25159 ft 384 kts
2026-05-07 11:35 37.42328 31.26043 24790 ft 379 kts
2026-05-07 11:35 37.44958 31.26350 24208 ft 378 kts 356°
2026-05-07 11:35 37.47515 31.25805 23615 ft 372 kts 338°
2026-05-07 11:36 37.49804 31.24300 22956 ft 371 kts 324°
2026-05-07 11:36 37.51675 31.22072 22311 ft 373 kts 309°
2026-05-07 11:36 37.53063 31.19311 21660 ft 376 kts 297°
2026-05-07 11:36 37.53810 31.16141 21037 ft 382 kts 279°
2026-05-07 11:37 37.53548 31.12791 20399 ft 393 kts 255°
2026-05-07 11:37 37.52166 31.09836 19816 ft 405 kts 230°
2026-05-07 11:37 37.49861 31.07762 19194 ft 414 kts 205°
2026-05-07 11:37 37.47059 31.07031 18638 ft 412 kts 180°
2026-05-07 11:38 37.44262 31.07643 18023 ft 405 kts 166°
2026-05-07 11:38 37.41578 31.08603 17349 ft 398 kts 161°
2026-05-07 11:38 37.39015 31.09810 16904 ft 385 kts 159°
2026-05-07 11:38 37.36558 31.11017 16526 ft 373 kts 159°
2026-05-07 11:39 37.34137 31.12043 16102 ft 362 kts 171°
2026-05-07 11:39 37.31672 31.12057 15733 ft 348 kts 188°
2026-05-07 11:39 37.29300 31.11690 15367 ft 339 kts 189°
2026-05-07 11:39 37.27009 31.11331 15007 ft 332 kts 188°
2026-05-07 11:40 37.24737 31.10994 14637 ft 326 kts 188°
2026-05-07 11:40 37.22508 31.10677 14277 ft 319 kts 188°
2026-05-07 11:40 37.20314 31.10375 13910 ft 315 kts 187°
2026-05-07 11:40 37.18167 31.09957 13499 ft 310 kts 201°
2026-05-07 11:41 37.16356 31.08612 13111 ft 299 kts 228°
2026-05-07 11:41 37.15198 31.06491 13028 ft 296 kts 250°
2026-05-07 11:41 37.14667 31.04020 12984 ft 290 kts 270°
2026-05-07 11:41 37.14846 31.01554 12980 ft 282 kts 291°
2026-05-07 11:42 37.15841 30.99487 13007 ft 278 kts 317°
2026-05-07 11:42 37.17408 30.98158 13001 ft 276 kts 338°
2026-05-07 11:42 37.19265 30.97624 12984 ft 276 kts 358°
2026-05-07 11:42 37.21177 30.97769 12995 ft 276 kts
2026-05-07 11:43 37.23087 30.98062 13005 ft 276 kts
2026-05-07 11:43 37.25002 30.98369 12950 ft 279 kts
2026-05-07 11:43 37.26947 30.98673 12658 ft 282 kts
2026-05-07 11:43 37.28887 30.98960 12421 ft 279 kts
2026-05-07 11:44 37.30801 30.99235 12155 ft 275 kts
2026-05-07 11:44 37.32698 30.99503 11901 ft 273 kts
2026-05-07 11:44 37.34575 30.99770 11657 ft 270 kts
2026-05-07 11:44 37.36403 31.00029 11404 ft 264 kts
2026-05-07 11:45 37.38215 31.00284 11181 ft 261 kts
2026-05-07 11:45 37.40003 31.00513 11051 ft 255 kts
2026-05-07 11:45 37.41684 31.00038 11039 ft 245 kts 332°
2026-05-07 11:45 37.42988 30.98676 11001 ft 248 kts 310°
2026-05-07 11:46 37.43822 30.96721 10752 ft 260 kts 287°
2026-05-07 11:46 37.43902 30.94460 10557 ft 262 kts 257°
2026-05-07 11:46 37.43050 30.92451 10521 ft 264 kts 227°
2026-05-07 11:46 37.41540 30.91141 10523 ft 267 kts 204°
2026-05-07 11:47 37.39782 30.90328 10394 ft 272 kts 199°
2026-05-07 11:47 37.37978 30.89607 10137 ft 272 kts 198°
2026-05-07 11:47 37.36178 30.88880 9880 ft 269 kts 198°
2026-05-07 11:47 37.34413 30.88147 9568 ft 266 kts 199°
2026-05-07 11:48 37.32645 30.87401 9042 ft 270 kts 199°
2026-05-07 11:48 37.30875 30.86658 8537 ft 272 kts 197°
2026-05-07 11:48 37.29007 30.86233 8046 ft 274 kts 186°
2026-05-07 11:48 37.27102 30.86018 7553 ft 275 kts 185°
2026-05-07 11:49 37.25201 30.85807 7238 ft 269 kts 186°
2026-05-07 11:49 37.23380 30.85579 7104 ft 256 kts 186°
2026-05-07 11:49 37.21665 30.85351 7074 ft 239 kts 186°
2026-05-07 11:49 37.19971 30.85121 6338 ft 254 kts 186°
2026-05-07 11:50 37.18171 30.84872 5617 ft 266 kts 186°
2026-05-07 11:50 37.16317 30.84617 5000 ft 267 kts 186°
2026-05-07 11:50 37.14555 30.84373 4850 ft 247 kts 186°
2026-05-07 11:50 37.12848 30.84133 4420 ft 242 kts 186°
2026-05-07 11:51 37.11198 30.83907 4074 ft 235 kts 186°
2026-05-07 11:51 37.09600 30.83687 3759 ft 224 kts 186°
2026-05-07 11:51 37.08101 30.83481 3470 ft 209 kts 186°
2026-05-07 11:51 37.06703 30.83289 3200 ft 196 kts 186°
2026-05-07 11:52 37.05383 30.83106 2957 ft 186 kts 186°
2026-05-07 11:52 37.04133 30.82933 2712 ft 176 kts 186°
2026-05-07 11:52 37.02953 30.82772 2490 ft 163 kts 186°
2026-05-07 11:52 37.01843 30.82619 2256 ft 163 kts 185°
2026-05-07 11:53 37.00738 30.82467 2062 ft 158 kts 185°
2026-05-07 11:53 36.99665 30.82319 1861 ft 153 kts 185°
2026-05-07 11:53 36.98622 30.82175 1671 ft 150 kts 185°
2026-05-07 11:53 36.97606 30.82009 1467 ft 145 kts 184°
2026-05-07 11:54 36.96604 30.81893 1288 ft 145 kts 184°
2026-05-07 11:54 36.95609 30.81763 1114 ft 143 kts 186°
2026-05-07 11:54 36.94625 30.81624 882 ft 141 kts 187°
2026-05-07 11:54 36.93659 30.81491 708 ft 139 kts 185°
2026-05-07 11:55 36.92697 30.81361 488 ft 137 kts 184°
2026-05-07 11:55 36.91754 30.81230 332 ft 135 kts 185°
2026-05-07 11:55 36.90829 30.81100 209 ft 130 kts 186°
2026-05-07 11:55 36.90040 30.80992 202 ft 87 kts 186°
2026-05-07 11:56 36.89659 30.80943 189 ft 27 kts 186°
2026-05-07 11:56 36.89478 30.80913 189 ft 25 kts 190°
2026-05-07 11:56 36.89317 30.80847 187 ft 24 kts 206°
2026-05-07 11:56 36.89186 30.80740 190 ft 19 kts 216°
2026-05-07 11:57 36.89123 30.80681 204 ft 10 kts 219°
2026-05-07 11:57 36.89130 30.80633 200 ft 5 kts 350°
2026-05-07 11:57 36.89164 30.80635 200 ft 5 kts
2026-05-07 11:57 36.89206 30.80642 195 ft 7 kts
2026-05-07 11:58 36.89267 30.80651 195 ft 10 kts
2026-05-07 11:58 36.89349 30.80661 195 ft 13 kts
2026-05-07 11:58 36.89450 30.80675 201 ft 16 kts
2026-05-07 11:58 36.89530 30.80679 193 ft 6 kts 344°
2026-05-07 11:59 36.89558 30.80645 195 ft 6 kts 291°
2026-05-07 11:59 36.89565 30.80590 196 ft 7 kts 275°
2026-05-07 11:59 36.89571 30.80519 191 ft 9 kts 276°
2026-05-07 11:59 36.89579 30.80432 204 ft 11 kts 276°
2026-05-07 12:00 36.89594 30.80330 202 ft 13 kts 295°
2026-05-07 12:00 36.89677 30.80311 191 ft 14 kts
2026-05-07 12:00 36.89761 30.80309 197 ft 10 kts 317°
2026-05-07 12:00 36.89775 30.80270 191 ft 1 kts 287°
2026-05-07 12:01 36.89777 30.80262 191 ft 1 kts 286°
2026-05-07 12:01 36.89779 30.80254 194 ft 1 kts 285°
2026-05-07 12:01 36.89780 30.80246 217 ft 1 kts 285°
2026-05-07 12:01 36.89782 30.80238 218 ft 0 kts 285°
2026-05-07 12:02 36.89783 30.80235 221 ft 1 kts 285°
2026-05-07 12:03 36.89783 30.80234 221 ft 0 kts 285°